Time,TemperatureF,DewpointF,PressureIn,WindDirection,WindDirectionDegrees,WindSpeedMPH,WindSpeedGustMPH,Humidity,HourlyPrecipIn,Conditions,Clouds,dailyrainin,SolarRadiationWatts/m^2,SoftwareType,DateUTC
2013-02-12 00:00:00,42.1,41.4,29.72,WSW,252,6.0,8.0,97,0.00,,,1.03,0.0,meteohub,2013-02-12 05:00:00,
2013-02-12 00:05:00,42.3,41.7,29.73,WNW,286,3.0,8.0,98,0.00,,,0.00,0.0,meteohub,2013-02-12 05:05:00,
2013-02-12 00:10:00,42.3,41.7,29.73,West,279,4.0,7.0,98,0.00,,,0.00,0.0,meteohub,2013-02-12 05:10:00,
2013-02-12 00:15:00,42.3,41.7,29.73,WSW,252,2.0,8.0,98,0.00,,,0.00,0.0,meteohub,2013-02-12 05:15:00,
2013-02-12 00:20:00,42.4,41.9,29.73,WSW,246,4.0,8.0,98,0.00,,,0.00,0.0,meteohub,2013-02-12 05:20:00,
2013-02-12 00:25:00,42.4,41.9,29.73,WSW,251,3.0,10.0,98,0.00,,,0.00,0.0,meteohub,2013-02-12 05:25:00,
2013-02-12 00:30:00,42.4,41.9,29.73,West,268,5.0,11.0,98,0.00,,,0.00,0.0,meteohub,2013-02-12 05:30:00,
2013-02-12 00:35:00,42.4,41.9,29.74,WSW,247,5.0,11.0,98,0.00,,,0.00,0.0,meteohub,2013-02-12 05:35:00,
2013-02-12 00:41:00,42.3,41.7,29.74,West,262,9.0,13.0,98,0.00,,,0.00,0.0,meteohub,2013-02-12 05:41:00,
2013-02-12 00:46:00,42.1,41.5,29.74,WSW,248,2.0,13.0,98,0.00,,,0.00,0.0,meteohub,2013-02-12 05:46:00,
2013-02-12 00:51:00,41.9,41.2,29.74,SW,233,1.0,13.0,97,0.00,,,0.00,0.0,meteohub,2013-02-12 05:51:00,
2013-02-12 00:56:00,41.7,41.2,29.74,WSW,240,2.0,9.0,98,0.00,,,0.00,0.0,meteohub,2013-02-12 05:56:00,
2013-02-12 01:01:00,41.5,40.8,29.74,NW,306,1.0,10.0,97,0.00,,,0.00,0.0,meteohub,2013-02-12 06:01:00,
2013-02-12 01:06:00,41.5,40.8,29.74,WSW,243,5.0,10.0,97,0.00,,,0.00,0.0,meteohub,2013-02-12 06:06:00,
2013-02-12 01:11:00,41.4,40.6,29.74,WSW,250,1.0,10.0,97,0.00,,,0.00,0.0,meteohub,2013-02-12 06:11:00,
2013-02-12 01:16:00,41.2,40.5,29.74,West,273,1.0,10.0,97,0.00,,,0.00,0.0,meteohub,2013-02-12 06:16:00,
2013-02-12 01:21:00,40.8,40.1,29.74,NW,304,1.0,10.0,97,0.00,,,0.00,0.0,meteohub,2013-02-12 06:21:00,
2013-02-12 01:26:00,40.8,40.1,29.74,West,267,1.0,10.0,97,0.00,,,0.00,0.0,meteohub,2013-02-12 06:26:00,
2013-02-12 01:31:00,40.6,39.9,29.74,WSW,237,4.0,7.0,97,0.00,,,0.00,0.0,meteohub,2013-02-12 06:31:00,
2013-02-12 01:36:00,40.6,39.9,29.74,WSW,257,1.0,7.0,97,0.00,,,0.00,0.0,meteohub,2013-02-12 06:36:00,
2013-02-12 01:41:00,40.5,39.7,29.74,West,261,2.0,7.0,97,0.00,,,0.00,0.0,meteohub,2013-02-12 06:41:00,
2013-02-12 01:46:00,40.5,39.7,29.74,WSW,252,1.0,7.0,97,0.00,,,0.00,0.0,meteohub,2013-02-12 06:46:00,
2013-02-12 01:51:00,40.3,39.6,29.75,WSW,251,2.0,7.0,97,0.00,,,0.00,0.0,meteohub,2013-02-12 06:51:00,
2013-02-12 01:56:00,39.9,39.2,29.75,WSW,250,1.0,7.0,97,0.00,,,0.00,0.0,meteohub,2013-02-12 06:56:00,
2013-02-12 02:01:00,39.7,38.7,29.75,WSW,244,0.0,5.0,96,0.00,,,0.00,0.0,meteohub,2013-02-12 07:01:00,
2013-02-12 02:06:00,39.7,38.7,29.75,West,281,0.0,3.0,96,0.00,,,0.00,0.0,meteohub,2013-02-12 07:06:00,
2013-02-12 02:11:00,39.6,38.8,29.75,SW,228,2.0,5.0,97,0.00,,,0.00,0.0,meteohub,2013-02-12 07:11:00,
2013-02-12 02:16:00,39.6,38.8,29.75,West,261,2.0,5.0,97,0.00,,,0.00,0.0,meteohub,2013-02-12 07:16:00,
2013-02-12 02:21:00,39.6,38.8,29.75,WSW,246,0.0,5.0,97,0.00,,,0.00,0.0,meteohub,2013-02-12 07:21:00,
2013-02-12 02:26:00,39.6,38.8,29.75,WSW,250,2.0,5.0,97,0.00,,,0.00,0.0,meteohub,2013-02-12 07:26:00,
2013-02-12 02:31:00,39.4,38.7,29.75,WSW,258,4.0,5.0,97,0.00,,,0.00,0.0,meteohub,2013-02-12 07:31:00,
2013-02-12 02:36:00,39.4,38.7,29.75,West,275,1.0,5.0,97,0.00,,,0.00,0.0,meteohub,2013-02-12 07:36:00,
2013-02-12 02:41:00,39.2,38.1,29.75,West,263,0.0,5.0,96,0.00,,,0.00,0.0,meteohub,2013-02-12 07:41:00,
2013-02-12 02:46:00,39.2,38.5,29.76,West,263,2.0,5.0,97,0.00,,,0.00,0.0,meteohub,2013-02-12 07:46:00,
2013-02-12 02:51:00,39.4,38.7,29.75,WNW,293,1.0,4.0,97,0.00,,,0.00,0.0,meteohub,2013-02-12 07:51:00,
2013-02-12 02:56:00,39.4,38.7,29.75,WSW,252,2.0,4.0,97,0.00,,,0.00,0.0,meteohub,2013-02-12 07:56:00,
2013-02-12 03:01:00,39.6,38.8,29.75,SW,224,1.0,5.0,97,0.00,,,0.00,0.0,meteohub,2013-02-12 08:01:00,
2013-02-12 03:06:00,39.6,38.8,29.75,SW,228,1.0,7.0,97,0.00,,,0.00,0.0,meteohub,2013-02-12 08:06:00,
2013-02-12 03:11:00,39.6,38.5,29.75,SW,227,2.0,7.0,96,0.00,,,0.00,0.0,meteohub,2013-02-12 08:11:00,
2013-02-12 03:17:00,39.6,38.5,29.75,WNW,286,1.0,7.0,96,0.00,,,0.00,0.0,meteohub,2013-02-12 08:17:00,
2013-02-12 03:22:00,39.7,38.7,29.75,WSW,246,4.0,7.0,96,0.00,,,0.00,0.0,meteohub,2013-02-12 08:22:00,
2013-02-12 03:27:00,39.7,38.5,29.76,WSW,241,2.0,7.0,95,0.01,,,0.01,0.0,meteohub,2013-02-12 08:27:00,
2013-02-12 03:32:00,39.7,38.1,29.75,WNW,287,2.0,7.0,94,0.01,,,0.01,0.0,meteohub,2013-02-12 08:32:00,
2013-02-12 03:37:00,39.7,37.9,29.75,West,267,2.0,8.0,93,0.01,,,0.01,0.0,meteohub,2013-02-12 08:37:00,
2013-02-12 03:42:00,39.7,37.6,29.75,WSW,242,5.0,8.0,92,0.01,,,0.01,0.0,meteohub,2013-02-12 08:42:00,
2013-02-12 03:47:00,39.7,37.4,29.75,WSW,249,1.0,8.0,91,0.01,,,0.01,0.0,meteohub,2013-02-12 08:47:00,
2013-02-12 03:52:00,39.7,37.4,29.76,SW,221,3.0,6.0,91,0.01,,,0.01,0.0,meteohub,2013-02-12 08:52:00,
2013-02-12 03:57:00,39.7,37.4,29.76,WSW,258,4.0,6.0,91,0.01,,,0.01,0.0,meteohub,2013-02-12 08:57:00,
2013-02-12 04:02:00,39.7,37.0,29.76,WSW,248,6.0,6.0,90,0.01,,,0.01,0.0,meteohub,2013-02-12 09:02:00,
2013-02-12 04:07:00,39.7,37.0,29.77,WSW,242,2.0,6.0,90,0.01,,,0.01,0.0,meteohub,2013-02-12 09:07:00,
2013-02-12 04:12:00,39.7,37.0,29.77,West,263,1.0,6.0,90,0.01,,,0.01,0.0,meteohub,2013-02-12 09:12:00,
2013-02-12 04:17:00,39.6,36.9,29.77,WSW,244,3.0,6.0,90,0.01,,,0.01,0.0,meteohub,2013-02-12 09:17:00,
2013-02-12 04:22:00,39.6,36.9,29.77,WSW,247,2.0,6.0,90,0.01,,,0.01,0.0,meteohub,2013-02-12 09:22:00,
2013-02-12 04:27:00,39.4,37.0,29.78,West,276,1.0,6.0,91,0.00,,,0.01,0.0,meteohub,2013-02-12 09:27:00,
2013-02-12 04:32:00,39.4,37.0,29.78,West,262,4.0,8.0,91,0.00,,,0.01,0.0,meteohub,2013-02-12 09:32:00,
2013-02-12 04:37:00,39.2,36.9,29.78,WSW,255,2.0,8.0,91,0.00,,,0.01,0.0,meteohub,2013-02-12 09:37:00,
2013-02-12 04:42:00,39.4,37.0,29.78,SW,235,0.0,8.0,91,0.00,,,0.01,0.0,meteohub,2013-02-12 09:42:00,
2013-02-12 04:47:00,39.4,37.0,29.78,West,280,5.0,7.0,91,0.00,,,0.01,0.0,meteohub,2013-02-12 09:47:00,
2013-02-12 04:52:00,39.4,37.0,29.79,SSW,198,1.0,7.0,91,0.00,,,0.01,0.0,meteohub,2013-02-12 09:52:00,
2013-02-12 04:57:00,39.4,36.7,29.78,West,260,3.0,7.0,90,0.00,,,0.01,0.0,meteohub,2013-02-12 09:57:00,
2013-02-12 05:02:00,39.4,36.5,29.78,West,267,7.0,7.0,89,0.00,,,0.01,0.0,meteohub,2013-02-12 10:02:00,
2013-02-12 05:07:00,39.6,36.0,29.78,West,263,5.0,8.0,87,0.00,,,0.01,0.0,meteohub,2013-02-12 10:07:00,
2013-02-12 05:12:00,39.6,35.8,29.78,WNW,302,2.0,8.0,86,0.00,,,0.01,0.0,meteohub,2013-02-12 10:12:00,
2013-02-12 05:17:00,39.6,35.4,29.78,WSW,242,5.0,8.0,85,0.00,,,0.01,0.0,meteohub,2013-02-12 10:17:00,
2013-02-12 05:22:00,39.6,35.1,29.78,WNW,285,4.0,8.0,84,0.00,,,0.01,0.0,meteohub,2013-02-12 10:22:00,
2013-02-12 05:27:00,39.6,34.9,29.78,WSW,255,1.0,9.0,83,0.00,,,0.01,0.0,meteohub,2013-02-12 10:27:00,
2013-02-12 05:32:00,39.6,34.9,29.78,West,277,6.0,9.0,83,0.00,,,0.01,0.0,meteohub,2013-02-12 10:32:00,
2013-02-12 05:37:00,39.4,34.7,29.78,WSW,241,3.0,11.0,83,0.00,,,0.01,0.0,meteohub,2013-02-12 10:37:00,
2013-02-12 05:42:00,39.4,34.7,29.78,WSW,254,1.0,11.0,83,0.00,,,0.01,0.0,meteohub,2013-02-12 10:42:00,
2013-02-12 05:47:00,39.2,34.7,29.78,WNW,300,4.0,8.0,84,0.00,,,0.01,0.0,meteohub,2013-02-12 10:47:00,
2013-02-12 05:52:00,39.0,34.9,29.79,WSW,249,2.0,8.0,85,0.00,,,0.01,0.0,meteohub,2013-02-12 10:52:00,
2013-02-12 05:57:00,38.8,35.1,29.79,WSW,248,4.0,7.0,86,0.00,,,0.01,0.0,meteohub,2013-02-12 10:57:00,
2013-02-12 06:02:00,38.8,35.1,29.79,West,275,2.0,8.0,86,0.00,,,0.01,0.0,meteohub,2013-02-12 11:02:00,
2013-02-12 06:07:00,38.7,34.9,29.79,WSW,258,2.0,8.0,86,0.00,,,0.01,0.0,meteohub,2013-02-12 11:07:00,
2013-02-12 06:12:00,38.7,34.9,29.80,West,281,1.0,8.0,86,0.00,,,0.01,0.0,meteohub,2013-02-12 11:12:00,
2013-02-12 06:17:00,38.5,34.7,29.80,West,262,6.0,8.0,86,0.00,,,0.01,0.0,meteohub,2013-02-12 11:17:00,
2013-02-12 06:22:00,38.3,34.5,29.80,WSW,244,0.0,8.0,86,0.00,,,0.01,0.0,meteohub,2013-02-12 11:22:00,
2013-02-12 06:27:00,38.1,34.3,29.80,SW,233,4.0,8.0,86,0.00,,,0.01,0.0,meteohub,2013-02-12 11:27:00,
2013-02-12 06:32:00,37.9,33.8,29.81,West,276,3.0,7.0,85,0.00,,,0.01,0.0,meteohub,2013-02-12 11:32:00,
2013-02-12 06:37:00,38.1,34.0,29.80,South,170,3.0,5.0,85,0.00,,,0.01,0.0,meteohub,2013-02-12 11:37:00,
2013-02-12 06:42:00,37.9,33.8,29.80,SW,215,1.0,5.0,85,0.00,,,0.01,0.0,meteohub,2013-02-12 11:42:00,
2013-02-12 06:47:00,37.8,33.6,29.80,SSW,213,4.0,7.0,85,0.00,,,0.01,0.0,meteohub,2013-02-12 11:47:00,
2013-02-12 06:52:00,37.8,33.4,29.81,WSW,240,2.0,7.0,84,0.00,,,0.01,5.0,meteohub,2013-02-12 11:52:00,
2013-02-12 06:57:00,37.6,33.3,29.81,SW,228,2.0,6.0,84,0.00,,,0.01,9.0,meteohub,2013-02-12 11:57:00,
2013-02-12 07:02:00,37.6,33.3,29.81,WSW,237,3.0,6.0,84,0.00,,,0.01,12.0,meteohub,2013-02-12 12:02:00,
2013-02-12 07:07:00,37.2,32.9,29.81,West,279,4.0,6.0,84,0.00,,,0.01,14.0,meteohub,2013-02-12 12:07:00,
2013-02-12 07:12:00,37.6,32.5,29.81,SW,229,4.0,8.0,82,0.00,,,0.01,18.0,meteohub,2013-02-12 12:12:00,
2013-02-12 07:17:00,37.9,32.7,29.81,West,267,2.0,13.0,81,0.00,,,0.01,23.0,meteohub,2013-02-12 12:17:00,
2013-02-12 07:22:00,38.1,32.5,29.81,WSW,255,1.0,13.0,80,0.00,,,0.01,39.0,meteohub,2013-02-12 12:22:00,
2013-02-12 07:27:00,38.1,32.7,29.81,SW,231,0.0,9.0,81,0.00,,,0.01,51.0,meteohub,2013-02-12 12:27:00,
2013-02-12 07:32:00,37.9,32.4,29.82,WNW,284,2.0,9.0,80,0.00,,,0.01,58.0,meteohub,2013-02-12 12:32:00,
2013-02-12 07:37:00,38.1,32.7,29.82,West,266,7.0,9.0,81,0.00,,,0.01,56.0,meteohub,2013-02-12 12:37:00,
2013-02-12 07:42:00,38.3,32.4,29.83,West,263,3.0,9.0,79,0.00,,,0.01,63.0,meteohub,2013-02-12 12:42:00,
2013-02-12 07:47:00,38.5,32.2,29.83,West,276,1.0,11.0,78,0.00,,,0.01,67.0,meteohub,2013-02-12 12:47:00,
2013-02-12 07:52:00,38.7,32.4,29.83,West,281,3.0,11.0,78,0.00,,,0.01,83.0,meteohub,2013-02-12 12:52:00,
2013-02-12 07:57:00,38.8,32.2,29.83,West,259,8.0,9.0,77,0.00,,,0.01,158.0,meteohub,2013-02-12 12:57:00,
2013-02-12 08:02:00,39.2,32.4,29.84,SW,231,4.0,10.0,76,0.00,,,0.01,135.0,meteohub,2013-02-12 13:02:00,
2013-02-12 08:07:00,39.4,32.5,29.83,SW,224,3.0,10.0,76,0.00,,,0.01,107.0,meteohub,2013-02-12 13:07:00,
2013-02-12 08:12:00,39.6,32.4,29.84,WSW,250,4.0,10.0,75,0.00,,,0.01,195.0,meteohub,2013-02-12 13:12:00,
2013-02-12 08:17:00,39.7,32.5,29.84,WSW,246,8.0,10.0,75,0.00,,,0.01,209.0,meteohub,2013-02-12 13:17:00,
2013-02-12 08:22:00,40.1,32.5,29.84,SW,229,3.0,10.0,74,0.00,,,0.01,216.0,meteohub,2013-02-12 13:22:00,
2013-02-12 08:27:00,40.3,32.4,29.84,WSW,257,9.0,10.0,73,0.00,,,0.01,227.0,meteohub,2013-02-12 13:27:00,
2013-02-12 08:32:00,40.5,32.2,29.84,WSW,245,6.0,10.0,72,0.00,,,0.01,236.0,meteohub,2013-02-12 13:32:00,
2013-02-12 08:37:00,40.8,32.5,29.84,West,265,7.0,10.0,72,0.00,,,0.01,246.0,meteohub,2013-02-12 13:37:00,
2013-02-12 08:42:00,41.0,32.4,29.84,SSW,196,1.0,10.0,71,0.00,,,0.01,260.0,meteohub,2013-02-12 13:42:00,
2013-02-12 08:47:00,41.2,32.2,29.84,WSW,240,4.0,13.0,70,0.00,,,0.01,272.0,meteohub,2013-02-12 13:47:00,
2013-02-12 08:52:00,41.4,32.0,29.84,SW,232,4.0,13.0,69,0.00,,,0.01,294.0,meteohub,2013-02-12 13:52:00,
2013-02-12 08:57:00,41.5,32.5,29.84,WSW,246,7.0,13.0,70,0.00,,,0.01,294.0,meteohub,2013-02-12 13:57:00,
2013-02-12 09:02:00,41.7,32.7,29.84,South,174,1.0,13.0,70,0.00,,,0.01,306.0,meteohub,2013-02-12 14:02:00,
2013-02-12 09:07:00,42.1,32.4,29.84,West,267,4.0,13.0,68,0.00,,,0.01,320.0,meteohub,2013-02-12 14:07:00,
2013-02-12 09:12:00,42.4,32.2,29.85,WSW,238,2.0,15.0,67,0.00,,,0.01,330.0,meteohub,2013-02-12 14:12:00,
2013-02-12 09:17:00,42.6,32.0,29.85,WNW,289,4.0,15.0,66,0.00,,,0.01,341.0,meteohub,2013-02-12 14:17:00,
2013-02-12 09:22:00,43.0,32.4,29.85,WSW,249,6.0,12.0,66,0.00,,,0.01,353.0,meteohub,2013-02-12 14:22:00,
2013-02-12 09:27:00,43.2,31.8,29.85,West,277,2.0,15.0,64,0.00,,,0.01,362.0,meteohub,2013-02-12 14:27:00,
2013-02-12 09:32:00,43.3,31.3,29.85,West,267,4.0,15.0,62,0.00,,,0.01,378.0,meteohub,2013-02-12 14:32:00,
2013-02-12 09:37:00,43.5,30.9,29.85,West,263,4.0,16.0,61,0.00,,,0.01,390.0,meteohub,2013-02-12 14:37:00,
2013-02-12 09:42:00,43.7,30.7,29.85,WNW,286,8.0,16.0,60,0.00,,,0.01,403.0,meteohub,2013-02-12 14:42:00,
2013-02-12 09:47:00,43.9,30.6,29.85,West,259,6.0,16.0,59,0.00,,,0.01,417.0,meteohub,2013-02-12 14:47:00,
2013-02-12 09:52:00,44.1,30.7,29.85,WNW,286,7.0,17.0,59,0.00,,,0.01,429.0,meteohub,2013-02-12 14:52:00,
2013-02-12 09:57:00,44.2,30.7,29.85,WSW,242,7.0,17.0,59,0.00,,,0.01,439.0,meteohub,2013-02-12 14:57:00,
2013-02-12 10:02:00,44.2,30.4,29.86,WNW,294,9.0,17.0,58,0.00,,,0.01,452.0,meteohub,2013-02-12 15:02:00,
2013-02-12 10:07:00,44.2,30.0,29.86,WSW,244,19.0,24.0,57,0.00,,,0.01,462.0,meteohub,2013-02-12 15:07:00,
2013-02-12 10:12:00,44.1,29.8,29.86,West,267,8.0,24.0,57,0.00,,,0.01,475.0,meteohub,2013-02-12 15:12:00,
2013-02-12 10:17:00,44.1,29.8,29.86,WSW,248,6.0,24.0,57,0.00,,,0.01,494.0,meteohub,2013-02-12 15:17:00,
2013-02-12 10:22:00,44.2,30.0,29.85,WNW,285,6.0,24.0,57,0.00,,,0.01,499.0,meteohub,2013-02-12 15:22:00,
2013-02-12 10:27:00,44.4,30.2,29.86,WNW,302,3.0,24.0,57,0.00,,,0.01,512.0,meteohub,2013-02-12 15:27:00,
2013-02-12 10:32:00,44.4,29.7,29.86,WSW,242,11.0,24.0,56,0.00,,,0.01,524.0,meteohub,2013-02-12 15:32:00,
2013-02-12 10:37:00,44.6,30.4,29.86,WSW,246,3.0,19.0,57,0.00,,,0.01,533.0,meteohub,2013-02-12 15:37:00,
2013-02-12 10:42:00,44.4,29.7,29.86,West,261,9.0,19.0,56,0.00,,,0.01,548.0,meteohub,2013-02-12 15:42:00,
2013-02-12 10:47:00,44.6,29.8,29.86,NW,313,7.0,19.0,56,0.00,,,0.01,555.0,meteohub,2013-02-12 15:47:00,
2013-02-12 10:52:00,44.8,29.7,29.86,WNW,300,6.0,19.0,55,0.00,,,0.01,563.0,meteohub,2013-02-12 15:52:00,
2013-02-12 10:57:00,44.8,29.1,29.86,WNW,295,4.0,22.0,54,0.00,,,0.01,570.0,meteohub,2013-02-12 15:57:00,
2013-02-12 11:02:00,44.8,29.1,29.87,WNW,284,3.0,22.0,54,0.00,,,0.01,578.0,meteohub,2013-02-12 16:02:00,
2013-02-12 11:07:00,44.8,29.1,29.87,West,260,8.0,22.0,54,0.00,,,0.01,578.0,meteohub,2013-02-12 16:07:00,
2013-02-12 11:12:00,44.6,28.9,29.87,West,273,4.0,21.0,54,0.00,,,0.01,589.0,meteohub,2013-02-12 16:12:00,
2013-02-12 11:17:00,44.8,29.1,29.87,West,280,4.0,21.0,54,0.00,,,0.01,592.0,meteohub,2013-02-12 16:17:00,
2013-02-12 11:22:00,44.6,28.9,29.87,West,271,6.0,21.0,54,0.00,,,0.01,606.0,meteohub,2013-02-12 16:22:00,
2013-02-12 11:27:00,44.4,29.3,29.87,WSW,257,9.0,25.0,55,0.00,,,0.01,605.0,meteohub,2013-02-12 16:27:00,
2013-02-12 11:32:00,44.6,28.9,29.87,West,264,6.0,25.0,54,0.00,,,0.01,619.0,meteohub,2013-02-12 16:32:00,
2013-02-12 11:37:00,44.8,29.1,29.86,WNW,293,5.0,20.0,54,0.00,,,0.01,628.0,meteohub,2013-02-12 16:37:00,
2013-02-12 11:42:00,44.8,29.1,29.86,WNW,290,6.0,15.0,54,0.00,,,0.01,619.0,meteohub,2013-02-12 16:42:00,
2013-02-12 11:47:00,45.0,28.9,29.86,WNW,296,6.0,22.0,53,0.00,,,0.01,612.0,meteohub,2013-02-12 16:47:00,
2013-02-12 11:52:00,45.0,28.9,29.86,WSW,252,9.0,22.0,53,0.00,,,0.01,622.0,meteohub,2013-02-12 16:52:00,
2013-02-12 11:57:00,44.8,29.1,29.86,SW,224,5.0,18.0,54,0.00,,,0.01,624.0,meteohub,2013-02-12 16:57:00,
2013-02-12 12:02:00,44.4,28.4,29.86,WNW,282,3.0,20.0,53,0.00,,,0.01,621.0,meteohub,2013-02-12 17:02:00,
2013-02-12 12:07:00,44.8,28.8,29.86,West,274,11.0,21.0,53,0.00,,,0.01,628.0,meteohub,2013-02-12 17:07:00,
2013-02-12 12:12:00,44.8,28.8,29.86,WSW,247,10.0,21.0,53,0.00,,,0.01,608.0,meteohub,2013-02-12 17:12:00,
2013-02-12 12:17:00,44.8,28.2,29.87,SW,223,4.0,19.0,52,0.00,,,0.01,624.0,meteohub,2013-02-12 17:17:00,
2013-02-12 12:22:00,45.0,28.4,29.86,WNW,297,7.0,19.0,52,0.00,,,0.01,626.0,meteohub,2013-02-12 17:22:00,
2013-02-12 12:27:00,45.1,28.6,29.86,WNW,290,3.0,19.0,52,0.00,,,0.01,619.0,meteohub,2013-02-12 17:27:00,
2013-02-12 12:32:00,45.3,29.1,29.86,SW,236,5.0,19.0,53,0.00,,,0.01,619.0,meteohub,2013-02-12 17:32:00,
2013-02-12 12:37:00,45.3,28.2,29.87,WNW,294,6.0,19.0,51,0.00,,,0.01,619.0,meteohub,2013-02-12 17:37:00,
2013-02-12 12:42:00,45.0,28.4,29.86,WNW,285,5.0,17.0,52,0.00,,,0.01,617.0,meteohub,2013-02-12 17:42:00,
2013-02-12 12:47:00,45.1,28.6,29.87,WNW,294,5.0,20.0,52,0.00,,,0.01,615.0,meteohub,2013-02-12 17:47:00,
2013-02-12 12:52:00,45.3,28.2,29.87,SW,215,10.0,20.0,51,0.00,,,0.01,615.0,meteohub,2013-02-12 17:52:00,
2013-02-12 12:57:00,45.3,28.2,29.87,WNW,294,3.0,22.0,51,0.00,,,0.01,612.0,meteohub,2013-02-12 17:57:00,
2013-02-12 13:02:00,45.1,28.6,29.87,NNW,330,3.0,22.0,52,0.00,,,0.01,619.0,meteohub,2013-02-12 18:02:00,
2013-02-12 13:07:00,45.1,28.6,29.88,NNW,342,4.0,22.0,52,0.00,,,0.01,605.0,meteohub,2013-02-12 18:07:00,
2013-02-12 13:12:00,45.1,28.0,29.87,NW,315,15.0,21.0,51,0.00,,,0.01,598.0,meteohub,2013-02-12 18:12:00,
2013-02-12 13:17:00,45.5,28.4,29.88,NNW,341,3.0,21.0,51,0.00,,,0.01,592.0,meteohub,2013-02-12 18:17:00,
2013-02-12 13:22:00,45.7,28.6,29.88,West,261,6.0,20.0,51,0.00,,,0.01,585.0,meteohub,2013-02-12 18:22:00,
2013-02-12 13:27:00,45.7,28.6,29.88,SSW,194,3.0,20.0,51,0.00,,,0.01,594.0,meteohub,2013-02-12 18:27:00,
2013-02-12 13:32:00,45.9,28.2,29.88,SW,234,4.0,17.0,50,0.00,,,0.01,568.0,meteohub,2013-02-12 18:32:00,
2013-02-12 13:37:00,45.5,27.9,29.88,WNW,293,8.0,17.0,50,0.00,,,0.01,563.0,meteohub,2013-02-12 18:37:00,
2013-02-12 13:43:00,45.1,27.7,29.88,West,279,9.0,21.0,50,0.00,,,0.01,555.0,meteohub,2013-02-12 18:43:00,
2013-02-12 13:48:00,45.3,28.2,29.87,NNW,332,1.0,21.0,51,0.00,,,0.01,547.0,meteohub,2013-02-12 18:48:00,
2013-02-12 13:53:00,45.7,28.0,29.88,West,281,13.0,21.0,50,0.00,,,0.01,536.0,meteohub,2013-02-12 18:53:00,
2013-02-12 13:58:00,45.1,27.7,29.87,West,281,10.0,19.0,50,0.00,,,0.01,529.0,meteohub,2013-02-12 18:58:00,
2013-02-12 14:03:00,45.1,28.0,29.88,SW,231,4.0,20.0,51,0.00,,,0.01,534.0,meteohub,2013-02-12 19:03:00,
2013-02-12 14:08:00,45.0,27.9,29.88,West,263,5.0,20.0,51,0.00,,,0.01,526.0,meteohub,2013-02-12 19:08:00,
2013-02-12 14:13:00,45.1,28.0,29.88,West,275,4.0,20.0,51,0.00,,,0.01,504.0,meteohub,2013-02-12 19:13:00,
2013-02-12 14:18:00,45.3,27.9,29.88,WSW,248,8.0,18.0,50,0.00,,,0.01,494.0,meteohub,2013-02-12 19:18:00,
2013-02-12 14:23:00,45.1,28.0,29.87,WNW,300,1.0,18.0,51,0.00,,,0.01,482.0,meteohub,2013-02-12 19:23:00,
2013-02-12 14:28:00,45.3,28.2,29.88,West,280,3.0,18.0,51,0.00,,,0.01,471.0,meteohub,2013-02-12 19:28:00,
2013-02-12 14:33:00,45.1,28.0,29.88,NW,309,5.0,18.0,51,0.00,,,0.01,459.0,meteohub,2013-02-12 19:33:00,
2013-02-12 14:38:00,45.0,27.9,29.87,NW,315,14.0,16.0,51,0.00,,,0.01,446.0,meteohub,2013-02-12 19:38:00,
2013-02-12 14:43:00,45.0,28.4,29.87,West,261,3.0,16.0,52,0.00,,,0.01,434.0,meteohub,2013-02-12 19:43:00,
2013-02-12 14:48:00,44.6,27.5,29.87,WNW,284,8.0,18.0,51,0.00,,,0.01,362.0,meteohub,2013-02-12 19:48:00,
2013-02-12 14:53:00,44.4,27.9,29.87,ESE,109,3.0,18.0,52,0.00,,,0.01,338.0,meteohub,2013-02-12 19:53:00,
2013-02-12 14:58:00,44.4,27.9,29.88,SW,234,7.0,18.0,52,0.00,,,0.01,294.0,meteohub,2013-02-12 19:58:00,
2013-02-12 15:03:00,44.2,27.7,29.89,WNW,283,4.0,18.0,52,0.00,,,0.01,271.0,meteohub,2013-02-12 20:03:00,
2013-02-12 15:08:00,44.2,27.7,29.89,West,263,7.0,14.0,52,0.00,,,0.01,137.0,meteohub,2013-02-12 20:08:00,
2013-02-12 15:13:00,44.2,28.2,29.89,West,271,9.0,16.0,53,0.00,,,0.01,74.0,meteohub,2013-02-12 20:13:00,
2013-02-12 15:18:00,44.1,28.0,29.88,WSW,238,2.0,16.0,53,0.00,,,0.01,74.0,meteohub,2013-02-12 20:18:00,
2013-02-12 15:23:00,43.9,27.3,29.88,West,277,4.0,17.0,52,0.00,,,0.01,53.0,meteohub,2013-02-12 20:23:00,
2013-02-12 15:28:00,43.9,27.9,29.88,West,265,6.0,17.0,53,0.00,,,0.01,100.0,meteohub,2013-02-12 20:28:00,
2013-02-12 15:33:00,43.9,27.9,29.88,WSW,257,2.0,17.0,53,0.00,,,0.01,211.0,meteohub,2013-02-12 20:33:00,
2013-02-12 15:38:00,43.7,27.7,29.88,West,269,6.0,16.0,53,0.00,,,0.01,56.0,meteohub,2013-02-12 20:38:00,
2013-02-12 15:43:00,43.5,28.0,29.89,West,277,4.0,16.0,54,0.00,,,0.01,86.0,meteohub,2013-02-12 20:43:00,
2013-02-12 15:48:00,43.5,28.0,29.89,NW,307,4.0,15.0,54,0.00,,,0.01,77.0,meteohub,2013-02-12 20:48:00,
2013-02-12 15:53:00,43.5,28.0,29.88,West,279,8.0,15.0,54,0.00,,,0.01,60.0,meteohub,2013-02-12 20:53:00,
2013-02-12 15:58:00,43.3,27.9,29.88,WNW,300,13.0,14.0,54,0.00,,,0.01,65.0,meteohub,2013-02-12 20:58:00,
2013-02-12 16:03:00,43.3,27.9,29.88,West,268,2.0,13.0,54,0.00,,,0.01,63.0,meteohub,2013-02-12 21:03:00,
2013-02-12 16:08:00,43.2,27.7,29.87,SW,234,4.0,13.0,54,0.00,,,0.01,74.0,meteohub,2013-02-12 21:08:00,
2013-02-12 16:13:00,43.2,27.7,29.88,WSW,255,5.0,13.0,54,0.00,,,0.01,109.0,meteohub,2013-02-12 21:13:00,
2013-02-12 16:18:00,43.0,27.5,29.87,NW,313,3.0,11.0,54,0.00,,,0.01,51.0,meteohub,2013-02-12 21:18:00,
2013-02-12 16:23:00,42.8,27.7,29.87,WSW,240,10.0,15.0,55,0.00,,,0.01,35.0,meteohub,2013-02-12 21:23:00,
2013-02-12 16:28:00,42.6,28.0,29.88,WSW,256,2.0,15.0,56,0.00,,,0.01,33.0,meteohub,2013-02-12 21:28:00,
2013-02-12 16:33:00,42.4,27.9,29.88,West,261,6.0,13.0,56,0.00,,,0.01,33.0,meteohub,2013-02-12 21:33:00,
2013-02-12 16:38:00,42.4,27.9,29.88,WNW,302,2.0,13.0,56,0.00,,,0.01,30.0,meteohub,2013-02-12 21:38:00,
2013-02-12 16:43:00,42.3,27.7,29.88,SW,226,0.0,14.0,56,0.00,,,0.01,28.0,meteohub,2013-02-12 21:43:00,
2013-02-12 16:48:00,42.1,27.5,29.87,WSW,256,3.0,14.0,56,0.00,,,0.01,25.0,meteohub,2013-02-12 21:48:00,
2013-02-12 16:53:00,41.9,27.9,29.85,West,265,4.0,14.0,57,0.00,,,0.01,23.0,meteohub,2013-02-12 21:53:00,
2013-02-12 16:58:00,41.7,27.7,29.84,SW,235,2.0,10.0,57,0.00,,,0.01,19.0,meteohub,2013-02-12 21:58:00,
2013-02-12 17:03:00,41.5,27.5,29.85,WSW,252,1.0,10.0,57,0.00,,,0.01,19.0,meteohub,2013-02-12 22:03:00,
2013-02-12 17:09:00,41.4,27.7,29.85,NNW,337,4.0,9.0,58,0.00,,,0.01,16.0,meteohub,2013-02-12 22:09:00,
2013-02-12 17:14:00,41.2,27.5,29.85,WSW,257,1.0,9.0,58,0.00,,,0.01,11.0,meteohub,2013-02-12 22:14:00,
2013-02-12 17:19:00,41.0,27.3,29.86,NW,315,4.0,8.0,58,0.00,,,0.01,9.0,meteohub,2013-02-12 22:19:00,
2013-02-12 17:24:00,40.8,27.7,29.87,WSW,240,2.0,8.0,59,0.00,,,0.01,9.0,meteohub,2013-02-12 22:24:00,
2013-02-12 17:29:00,40.8,27.7,29.88,West,263,4.0,9.0,59,0.00,,,0.01,0.0,meteohub,2013-02-12 22:29:00,
2013-02-12 17:34:00,40.6,27.5,29.88,WSW,252,2.0,9.0,59,0.00,,,0.01,0.0,meteohub,2013-02-12 22:34:00,
2013-02-12 17:39:00,40.5,27.7,29.89,West,261,1.0,9.0,60,0.00,,,0.01,0.0,meteohub,2013-02-12 22:39:00,
2013-02-12 17:44:00,40.3,27.9,29.90,West,273,1.0,9.0,61,0.00,,,0.01,0.0,meteohub,2013-02-12 22:44:00,
2013-02-12 17:49:00,39.9,27.5,29.90,WSW,252,1.0,6.0,61,0.00,,,0.01,0.0,meteohub,2013-02-12 22:49:00,
2013-02-12 17:54:00,39.9,27.5,29.90,WSW,242,1.0,6.0,61,0.00,,,0.01,0.0,meteohub,2013-02-12 22:54:00,
2013-02-12 17:59:00,39.9,28.0,29.90,SW,223,1.0,8.0,62,0.00,,,0.01,0.0,meteohub,2013-02-12 22:59:00,
2013-02-12 18:04:00,39.7,27.9,29.91,SW,214,2.0,8.0,62,0.00,,,0.01,0.0,meteohub,2013-02-12 23:04:00,
2013-02-12 18:09:00,39.6,27.7,29.93,SW,228,0.0,8.0,62,0.00,,,0.01,0.0,meteohub,2013-02-12 23:09:00,
2013-02-12 18:14:00,39.4,27.9,29.94,WSW,249,4.0,6.0,63,0.00,,,0.01,0.0,meteohub,2013-02-12 23:14:00,
2013-02-12 18:19:00,39.2,27.7,29.95,SSW,209,0.0,6.0,63,0.00,,,0.01,0.0,meteohub,2013-02-12 23:19:00,
2013-02-12 18:24:00,39.0,27.5,29.95,WSW,250,5.0,6.0,63,0.00,,,0.01,0.0,meteohub,2013-02-12 23:24:00,
2013-02-12 18:29:00,39.2,27.7,29.96,SW,215,4.0,7.0,63,0.00,,,0.01,0.0,meteohub,2013-02-12 23:29:00,
2013-02-12 18:34:00,39.4,27.9,29.98,West,261,4.0,9.0,63,0.00,,,0.01,0.0,meteohub,2013-02-12 23:34:00,
2013-02-12 18:39:00,39.6,27.7,29.97,NW,304,3.0,9.0,62,0.00,,,0.01,0.0,meteohub,2013-02-12 23:39:00,
2013-02-12 18:44:00,39.6,27.7,29.98,SW,215,2.0,11.0,62,0.00,,,0.01,0.0,meteohub,2013-02-12 23:44:00,
2013-02-12 18:49:00,39.6,27.1,29.98,NW,314,4.0,11.0,61,0.00,,,0.01,0.0,meteohub,2013-02-12 23:49:00,
2013-02-12 18:54:00,39.6,27.1,29.99,West,263,4.0,11.0,61,0.00,,,0.01,0.0,meteohub,2013-02-12 23:54:00,
2013-02-12 18:59:00,39.6,27.1,29.99,NW,315,3.0,11.0,61,0.00,,,0.01,0.0,meteohub,2013-02-12 23:59:00,
2013-02-12 19:04:00,39.6,27.1,29.98,WSW,248,1.0,11.0,61,0.00,,,0.01,0.0,meteohub,2013-02-13 00:04:00,
2013-02-12 19:09:00,39.4,27.5,29.98,SSW,209,1.0,10.0,62,0.00,,,0.01,0.0,meteohub,2013-02-13 00:09:00,
2013-02-12 19:14:00,39.4,27.1,29.99,WSW,237,4.0,8.0,61,0.00,,,0.01,0.0,meteohub,2013-02-13 00:14:00,
2013-02-12 19:19:00,39.4,27.5,29.99,SW,223,4.0,8.0,62,0.00,,,0.01,0.0,meteohub,2013-02-13 00:19:00,
2013-02-12 19:24:00,39.2,27.3,29.98,West,263,0.0,10.0,62,0.00,,,0.01,0.0,meteohub,2013-02-13 00:24:00,
2013-02-12 19:29:00,39.0,27.5,29.97,WNW,292,1.0,10.0,63,0.00,,,0.01,0.0,meteohub,2013-02-13 00:29:00,
2013-02-12 19:34:00,38.8,27.3,29.97,WSW,245,1.0,9.0,63,0.00,,,0.01,0.0,meteohub,2013-02-13 00:34:00,
2013-02-12 19:39:00,38.7,27.5,29.97,WNW,300,0.0,8.0,64,0.00,,,0.01,0.0,meteohub,2013-02-13 00:39:00,
2013-02-12 19:44:00,38.7,27.5,29.98,WSW,254,2.0,8.0,64,0.00,,,0.01,0.0,meteohub,2013-02-13 00:44:00,
2013-02-12 19:49:00,38.5,27.3,29.99,WSW,242,0.0,5.0,64,0.00,,,0.01,0.0,meteohub,2013-02-13 00:49:00,
2013-02-12 19:54:00,38.5,27.3,29.98,West,268,3.0,5.0,64,0.00,,,0.01,0.0,meteohub,2013-02-13 00:54:00,
2013-02-12 19:59:00,38.5,27.3,29.97,WNW,294,1.0,4.0,64,0.00,,,0.01,0.0,meteohub,2013-02-13 00:59:00,
2013-02-12 20:04:00,38.3,27.1,29.97,West,279,0.0,6.0,64,0.00,,,0.01,0.0,meteohub,2013-02-13 01:04:00,
2013-02-12 20:09:00,38.3,27.1,29.97,WNW,300,0.0,7.0,64,0.00,,,0.01,0.0,meteohub,2013-02-13 01:09:00,
2013-02-12 20:14:00,38.3,26.8,29.98,WSW,253,3.0,7.0,63,0.00,,,0.01,0.0,meteohub,2013-02-13 01:14:00,
2013-02-12 20:19:00,38.5,27.0,29.98,West,269,3.0,7.0,63,0.00,,,0.01,0.0,meteohub,2013-02-13 01:19:00,
2013-02-12 20:24:00,38.5,27.0,29.98,NW,317,3.0,8.0,63,0.00,,,0.01,0.0,meteohub,2013-02-13 01:24:00,
2013-02-12 20:29:00,38.5,27.0,29.98,NW,306,2.0,8.0,63,0.00,,,0.01,0.0,meteohub,2013-02-13 01:29:00,
2013-02-12 20:34:00,38.5,27.0,29.97,West,281,6.0,8.0,63,0.00,,,0.01,0.0,meteohub,2013-02-13 01:34:00,
2013-02-12 20:39:00,38.5,27.0,29.97,WNW,302,2.0,8.0,63,0.00,,,0.01,0.0,meteohub,2013-02-13 01:39:00,
2013-02-12 20:44:00,38.5,27.0,29.96,WNW,300,2.0,9.0,63,0.00,,,0.01,0.0,meteohub,2013-02-13 01:44:00,
2013-02-12 20:50:00,38.1,27.0,29.97,WNW,300,5.0,9.0,64,0.00,,,0.01,0.0,meteohub,2013-02-13 01:50:00,
2013-02-12 20:55:00,38.1,27.0,29.97,WSW,244,4.0,8.0,64,0.00,,,0.01,0.0,meteohub,2013-02-13 01:55:00,
2013-02-12 21:00:00,38.3,27.1,29.97,WSW,244,7.0,8.0,64,0.00,,,0.01,0.0,meteohub,2013-02-13 02:00:00,
2013-02-12 21:05:00,38.3,27.1,29.96,NW,321,6.0,11.0,64,0.00,,,0.01,0.0,meteohub,2013-02-13 02:05:00,
2013-02-12 21:10:00,38.1,27.3,29.95,WNW,300,7.0,11.0,65,0.00,,,0.01,0.0,meteohub,2013-02-13 02:10:00,
2013-02-12 21:15:00,38.1,27.3,29.95,SW,232,6.0,11.0,65,0.00,,,0.01,0.0,meteohub,2013-02-13 02:15:00,
2013-02-12 21:20:00,37.9,27.1,29.94,West,262,8.0,10.0,65,0.00,,,0.01,0.0,meteohub,2013-02-13 02:20:00,
2013-02-12 21:25:00,37.9,27.1,29.94,West,266,4.0,10.0,65,0.00,,,0.01,0.0,meteohub,2013-02-13 02:25:00,
2013-02-12 21:30:00,37.9,27.1,29.94,WNW,298,0.0,10.0,65,0.00,,,0.01,0.0,meteohub,2013-02-13 02:30:00,
2013-02-12 21:35:00,37.8,27.1,29.94,WNW,282,4.0,12.0,65,0.00,,,0.01,0.0,meteohub,2013-02-13 02:35:00,
2013-02-12 21:40:00,37.6,27.0,29.94,WNW,285,2.0,12.0,65,0.00,,,0.01,0.0,meteohub,2013-02-13 02:40:00,
2013-02-12 21:45:00,37.6,27.0,29.95,WSW,258,1.0,8.0,65,0.00,,,0.01,0.0,meteohub,2013-02-13 02:45:00,
2013-02-12 21:50:00,37.2,26.6,29.94,WSW,246,4.0,8.0,65,0.00,,,0.01,0.0,meteohub,2013-02-13 02:50:00,
2013-02-12 21:55:00,37.2,26.6,29.94,West,271,4.0,7.0,65,0.00,,,0.01,0.0,meteohub,2013-02-13 02:55:00,
2013-02-12 22:00:00,37.2,26.6,29.94,WNW,284,1.0,7.0,65,0.00,,,0.01,0.0,meteohub,2013-02-13 03:00:00,
2013-02-12 22:05:00,37.0,26.8,29.94,WSW,257,1.0,6.0,66,0.00,,,0.01,0.0,meteohub,2013-02-13 03:05:00,
2013-02-12 22:10:00,36.9,26.6,29.93,West,261,0.0,5.0,66,0.00,,,0.01,0.0,meteohub,2013-02-13 03:10:00,
2013-02-12 22:15:00,36.7,26.4,29.93,WSW,252,2.0,4.0,66,0.00,,,0.01,0.0,meteohub,2013-02-13 03:15:00,
2013-02-12 22:20:00,36.5,26.2,29.93,WSW,253,1.0,4.0,66,0.00,,,0.01,0.0,meteohub,2013-02-13 03:20:00,
2013-02-12 22:25:00,36.1,26.2,29.93,WSW,250,4.0,4.0,67,0.00,,,0.01,0.0,meteohub,2013-02-13 03:25:00,
2013-02-12 22:30:00,36.0,26.1,29.93,WSW,239,1.0,4.0,67,0.00,,,0.01,0.0,meteohub,2013-02-13 03:30:00,
2013-02-12 22:35:00,35.8,26.2,29.93,WSW,242,0.0,5.0,68,0.00,,,0.01,0.0,meteohub,2013-02-13 03:35:00,
2013-02-12 22:40:00,35.6,26.1,29.93,SW,216,0.0,5.0,68,0.00,,,0.01,0.0,meteohub,2013-02-13 03:40:00,
2013-02-12 22:45:00,35.4,25.9,29.93,SW,216,0.0,4.0,68,0.00,,,0.01,0.0,meteohub,2013-02-13 03:45:00,
2013-02-12 22:50:00,35.2,26.1,29.92,SSW,206,1.0,2.0,69,0.00,,,0.01,0.0,meteohub,2013-02-13 03:50:00,
2013-02-12 22:55:00,34.9,25.7,29.93,SSW,206,0.0,2.0,69,0.00,,,0.01,0.0,meteohub,2013-02-13 03:55:00,
2013-02-12 23:00:00,34.2,25.7,29.93,SSW,206,0.0,2.0,71,0.00,,,0.01,0.0,meteohub,2013-02-13 04:00:00,
2013-02-12 23:05:00,33.6,25.5,29.94,SSW,206,0.0,1.0,72,0.00,,,0.01,0.0,meteohub,2013-02-13 04:05:00,
2013-02-12 23:10:00,33.3,25.5,29.94,SSW,206,0.0,1.0,73,0.00,,,0.01,0.0,meteohub,2013-02-13 04:10:00,
2013-02-12 23:15:00,33.1,25.7,29.94,WSW,252,0.0,4.0,74,0.00,,,0.01,0.0,meteohub,2013-02-13 04:15:00,
2013-02-12 23:20:00,33.4,25.3,29.94,WSW,248,1.0,5.0,72,0.00,,,0.01,0.0,meteohub,2013-02-13 04:20:00,
2013-02-12 23:25:00,33.8,25.7,29.95,WSW,248,1.0,5.0,72,0.00,,,0.01,0.0,meteohub,2013-02-13 04:25:00,
2013-02-12 23:30:00,33.8,25.3,29.95,WSW,248,0.0,5.0,71,0.00,,,0.01,0.0,meteohub,2013-02-13 04:30:00,
2013-02-12 23:35:00,33.6,25.5,29.95,WSW,248,0.0,3.0,72,0.00,,,0.01,0.0,meteohub,2013-02-13 04:35:00,
2013-02-12 23:40:00,33.4,25.3,29.95,WSW,248,0.0,2.0,72,0.00,,,0.01,0.0,meteohub,2013-02-13 04:40:00,
2013-02-12 23:45:00,33.1,25.3,29.96,WSW,248,0.0,1.0,73,0.00,,,0.01,0.0,meteohub,2013-02-13 04:45:00,
2013-02-12 23:50:00,32.9,25.2,29.95,WSW,248,0.0,1.0,73,0.00,,,0.01,0.0,meteohub,2013-02-13 04:50:00,
2013-02-12 23:56:00,33.1,25.3,29.96,SW,230,2.0,3.0,73,0.00,,,0.01,0.0,meteohub,2013-02-13 04:56:00,